La Nava - Corral De Ayllón Airport

Jump to: basic info | weather | comments

Related pages: nearby airports | nearby navaids | notams | map

Basic information (top)

Codes: LECA
Location: lon 41.410801, lat -3.448330, elev 3,280 ft / 1,000 m msl
Status: small_airport

Weather (top)

Current conditions for Torrejón Airport 55nm (102km) S (rec'd 2015/01/29 06:00Z):

LETO 290600Z 02003KT CAVOK 00/M00 Q1019 NOSIG

Airport forecast for Torrejón Airport 55nm (102km) S (rec'd 2015/01/29 06:27Z):

TAF COR LETO 290524Z 2906/3006 VRB04KT CAVOK TX13/2915Z TN00/2907Z 
      BECMG 2910/2912 22012KT PROB40 
      TEMPO 2914/3006 24015G28KT PROB30 
      TEMPO 2918/3006 3000 DZ BR OVC008

Latest comments (top)

No comments yet for La Nava - Corral De Ayllón Airport

More... (top)

See also NOTAMs and nearby airports and navaids, or visit the La Nava - Corral De Ayllón Airport page at the main OurAirports website..